Language: 


Des rapports , des résumés tant et plus, au choix de chacun....


Données statistiques de la station
Quotidien Rapport Février 12, 2017 Unités:  Métrique    Anglais   les deux
« Précédent Jour
Suivant Jour »
Quotidien Hebdomadaire Mensuel Annuel Actuel
  Haut: Bas: Moyen:
Température: 6.4 °C 1.1 °C 3.5 °C
Pt de rosée: 5.6 °C 0.5 °C 2.9 °C
Humidité: 98 % 93 % 96 %
Vitesse du vent: 20.1 km/h 0.0 km/h 8.6 km/h
Rafales: 23.8 km/h - -
Vent:- - East
Pression: 1022.9 hPa 1018.2 hPa -
Précipitation: 0.0 mm    
Historical Graphs
 
 
Données statistiques pour Février 12, 2017
Heure Température Point de rosée Pression Vent Vitesse du vent Refales Humidité Pluie (taux horaire)
00:02 1.1 °C 0.5 °C 1018.2 hPa NNE 6.1 km/h 6.1 km/h 96 % 0.0 mm
00:07 1.1 °C 0.5 °C 1018.8 hPa Calm   6.1 km/h 96 % 0.0 mm
00:12 1.2 °C 0.6 °C 1018.8 hPa North 7.9 km/h 8.7 km/h 96 % 0.0 mm
00:17 1.2 °C 0.6 °C 1018.8 hPa North 4.7 km/h 8.7 km/h 96 % 0.0 mm
00:22 1.2 °C 0.6 °C 1018.8 hPa North 4.0 km/h 7.6 km/h 96 % 0.0 mm
00:27 1.2 °C 0.6 °C 1018.8 hPa North 4.0 km/h 6.9 km/h 96 % 0.0 mm
00:32 1.2 °C 0.6 °C 1018.8 hPa NNW 4.7 km/h 7.9 km/h 96 % 0.0 mm
00:37 1.2 °C 0.6 °C 1019.9 hPa NNE 4.3 km/h 7.9 km/h 96 % 0.0 mm
00:42 1.3 °C 0.7 °C 1019.9 hPa North 6.1 km/h 7.9 km/h 96 % 0.0 mm
00:47 1.3 °C 0.7 °C 1019.9 hPa North 6.9 km/h 7.9 km/h 96 % 0.0 mm
00:52 1.3 °C 0.8 °C 1018.8 hPa NNE 3.5 km/h 9.0 km/h 97 % 0.0 mm
00:57 1.3 °C 0.8 °C 1018.8 hPa NNE 5.5 km/h 9.0 km/h 97 % 0.0 mm
01:02 1.3 °C 0.8 °C 1018.8 hPa North 2.1 km/h 9.0 km/h 97 % 0.0 mm
01:07 1.3 °C 0.8 °C 1018.8 hPa North 7.9 km/h 9.0 km/h 97 % 0.0 mm
01:12 1.3 °C 0.8 °C 1018.8 hPa NE 6.9 km/h 9.3 km/h 97 % 0.0 mm
01:17 1.3 °C 0.8 °C 1018.8 hPa NE 7.9 km/h 9.3 km/h 97 % 0.0 mm
01:22 1.3 °C 0.8 °C 1018.8 hPa NE 9.0 km/h 10.1 km/h 97 % 0.0 mm
01:27 1.3 °C 0.8 °C 1018.8 hPa NNE 6.9 km/h 10.1 km/h 97 % 0.0 mm
01:32 1.3 °C 1.0 °C 1018.8 hPa NNE 5.8 km/h 10.5 km/h 98 % 0.0 mm
01:37 1.3 °C 1.0 °C 1018.8 hPa NNE 4.0 km/h 10.5 km/h 98 % 0.0 mm
01:42 1.3 °C 1.0 °C 1018.8 hPa Calm   7.9 km/h 98 % 0.0 mm
01:47 1.3 °C 1.0 °C 1018.8 hPa NNE 8.7 km/h 8.7 km/h 98 % 0.0 mm
01:52 1.3 °C 1.0 °C 1018.8 hPa NNW 4.0 km/h 9.0 km/h 98 % 0.0 mm
01:57 1.3 °C 1.0 °C 1018.8 hPa ENE 5.0 km/h 9.0 km/h 98 % 0.0 mm
02:02 1.3 °C 1.0 °C 1018.8 hPa North 5.5 km/h 6.4 km/h 98 % 0.0 mm
02:07 1.4 °C 1.1 °C 1018.8 hPa NNE 2.1 km/h 6.9 km/h 98 % 0.0 mm
02:12 1.4 °C 1.1 °C 1018.8 hPa NNE 5.0 km/h 6.9 km/h 98 % 0.0 mm
02:18 1.4 °C 1.1 °C 1018.8 hPa NE 4.0 km/h 6.1 km/h 98 % 0.0 mm
02:23 1.4 °C 1.1 °C 1018.8 hPa NE 4.3 km/h 8.7 km/h 98 % 0.0 mm
02:28 1.4 °C 1.1 °C 1018.8 hPa North 5.0 km/h 8.7 km/h 98 % 0.0 mm
02:33 1.4 °C 1.1 °C 1018.8 hPa NNE 7.9 km/h 9.0 km/h 98 % 0.0 mm
02:38 1.4 °C 1.1 °C 1018.8 hPa NE 7.9 km/h 9.7 km/h 98 % 0.0 mm
02:43 1.4 °C 1.2 °C 1018.8 hPa North 6.4 km/h 10.1 km/h 98 % 0.0 mm
02:48 1.4 °C 1.2 °C 1018.8 hPa NNE 10.1 km/h 11.9 km/h 98 % 0.0 mm
02:53 1.4 °C 1.2 °C 1018.8 hPa NE 4.7 km/h 11.9 km/h 98 % 0.0 mm
02:58 1.6 °C 1.3 °C 1018.8 hPa NE 6.1 km/h 10.1 km/h 98 % 0.0 mm
03:03 1.6 °C 1.3 °C 1018.8 hPa NE 4.3 km/h 9.3 km/h 98 % 0.0 mm
03:08 1.6 °C 1.3 °C 1018.8 hPa Calm   7.6 km/h 98 % 0.0 mm
03:13 1.6 °C 1.3 °C 1018.8 hPa NE 4.0 km/h 6.8 km/h 98 % 0.0 mm
03:18 1.6 °C 1.3 °C 1018.8 hPa NE 6.9 km/h 7.9 km/h 98 % 0.0 mm
03:23 1.7 °C 1.4 °C 1018.8 hPa NNE 6.9 km/h 7.9 km/h 98 % 0.0 mm
03:28 1.7 °C 1.4 °C 1018.8 hPa NNE 6.9 km/h 10.5 km/h 98 % 0.0 mm
03:33 1.7 °C 1.4 °C 1018.8 hPa NNE 10.5 km/h 10.5 km/h 98 % 0.0 mm
03:38 1.7 °C 1.4 °C 1018.2 hPa NE 5.8 km/h 10.5 km/h 98 % 0.0 mm
03:43 1.7 °C 1.4 °C 1018.2 hPa NE 9.3 km/h 9.7 km/h 98 % 0.0 mm
03:48 1.7 °C 1.4 °C 1018.2 hPa NE 7.6 km/h 9.3 km/h 98 % 0.0 mm
03:53 1.7 °C 1.4 °C 1018.8 hPa NE 6.9 km/h 9.7 km/h 98 % 0.0 mm
03:58 1.7 °C 1.4 °C 1018.8 hPa NNE 7.9 km/h 10.8 km/h 98 % 0.0 mm
04:03 1.7 °C 1.4 °C 1018.8 hPa NE 5.8 km/h 10.8 km/h 98 % 0.0 mm
04:08 1.7 °C 1.4 °C 1018.8 hPa NE 6.9 km/h 10.1 km/h 98 % 0.0 mm
04:13 1.7 °C 1.4 °C 1018.8 hPa NE 9.0 km/h 10.1 km/h 98 % 0.0 mm
04:18 1.7 °C 1.4 °C 1018.8 hPa NE 9.3 km/h 10.1 km/h 98 % 0.0 mm
04:23 1.8 °C 1.5 °C 1018.8 hPa NNE 7.6 km/h 10.1 km/h 98 % 0.0 mm
04:28 1.8 °C 1.5 °C 1018.8 hPa North 5.5 km/h 9.7 km/h 98 % 0.0 mm
04:33 1.8 °C 1.5 °C 1018.8 hPa NE 6.4 km/h 9.3 km/h 98 % 0.0 mm
04:38 1.8 °C 1.5 °C 1018.8 hPa NE 4.3 km/h 8.7 km/h 98 % 0.0 mm
04:43 1.8 °C 1.5 °C 1018.8 hPa NE 6.1 km/h 10.1 km/h 98 % 0.0 mm
04:48 1.8 °C 1.5 °C 1018.8 hPa NE 7.6 km/h 10.1 km/h 98 % 0.0 mm
04:53 1.8 °C 1.5 °C 1018.2 hPa NE 4.7 km/h 7.9 km/h 98 % 0.0 mm
04:59 1.8 °C 1.5 °C 1018.2 hPa NE 6.1 km/h 7.9 km/h 98 % 0.0 mm
05:04 1.9 °C 1.6 °C 1018.2 hPa ENE 9.7 km/h 9.7 km/h 98 % 0.0 mm
05:09 1.9 °C 1.6 °C 1018.2 hPa NE 7.6 km/h 9.7 km/h 98 % 0.0 mm
05:14 1.9 °C 1.6 °C 1018.2 hPa ENE 9.3 km/h 9.3 km/h 98 % 0.0 mm
05:19 1.9 °C 1.6 °C 1018.2 hPa ENE 6.1 km/h 9.3 km/h 98 % 0.0 mm
05:24 1.9 °C 1.6 °C 1018.2 hPa NE 4.7 km/h 9.3 km/h 98 % 0.0 mm
05:29 1.9 °C 1.6 °C 1018.2 hPa NNW 3.5 km/h 7.6 km/h 98 % 0.0 mm
05:34 1.9 °C 1.6 °C 1018.2 hPa ENE 4.3 km/h 7.6 km/h 98 % 0.0 mm
05:39 1.9 °C 1.6 °C 1018.8 hPa NE 5.0 km/h 6.1 km/h 98 % 0.0 mm
05:44 1.8 °C 1.5 °C 1018.8 hPa NE 4.0 km/h 6.1 km/h 98 % 0.0 mm
05:49 1.8 °C 1.5 °C 1018.8 hPa Calm   6.9 km/h 98 % 0.0 mm
05:54 1.8 °C 1.5 °C 1018.8 hPa NE 4.0 km/h 6.9 km/h 98 % 0.0 mm
05:59 1.9 °C 1.6 °C 1018.8 hPa ENE 4.0 km/h 6.1 km/h 98 % 0.0 mm
06:04 1.9 °C 1.6 °C 1018.8 hPa Calm   6.9 km/h 98 % 0.0 mm
06:09 1.9 °C 1.6 °C 1018.8 hPa NE 6.1 km/h 6.9 km/h 98 % 0.0 mm
06:14 1.9 °C 1.6 °C 1018.8 hPa NE 5.5 km/h 7.2 km/h 98 % 0.0 mm
06:19 1.9 °C 1.6 °C 1018.8 hPa NNE 5.0 km/h 7.6 km/h 98 % 0.0 mm
06:24 1.9 °C 1.6 °C 1018.8 hPa NE 3.2 km/h 7.6 km/h 98 % 0.0 mm
06:29 1.9 °C 1.6 °C 1018.8 hPa ENE 4.3 km/h 7.2 km/h 98 % 0.0 mm
06:34 1.9 °C 1.6 °C 1018.8 hPa ENE 3.5 km/h 6.1 km/h 98 % 0.0 mm
06:39 1.9 °C 1.6 °C 1018.8 hPa Calm   5.8 km/h 98 % 0.0 mm
06:44 1.9 °C 1.6 °C 1018.8 hPa ENE 4.0 km/h 5.5 km/h 98 % 0.0 mm
06:49 1.9 °C 1.6 °C 1018.8 hPa East 4.0 km/h 6.9 km/h 98 % 0.0 mm
06:54 1.9 °C 1.6 °C 1018.8 hPa NE 5.5 km/h 8.7 km/h 98 % 0.0 mm
06:59 1.9 °C 1.6 °C 1018.8 hPa NE 5.5 km/h 8.7 km/h 98 % 0.0 mm
07:04 1.9 °C 1.6 °C 1018.8 hPa ENE 4.7 km/h 6.9 km/h 98 % 0.0 mm
07:09 1.9 °C 1.6 °C 1018.8 hPa ENE 5.0 km/h 7.9 km/h 98 % 0.0 mm
07:14 1.9 °C 1.7 °C 1018.8 hPa NNE 6.9 km/h 7.9 km/h 98 % 0.0 mm
07:19 1.9 °C 1.7 °C 1018.8 hPa ENE 6.4 km/h 6.9 km/h 98 % 0.0 mm
07:24 1.9 °C 1.7 °C 1018.8 hPa East 1.8 km/h 6.9 km/h 98 % 0.0 mm
07:29 1.9 °C 1.7 °C 1018.8 hPa East 6.4 km/h 6.9 km/h 98 % 0.0 mm
07:34 1.9 °C 1.7 °C 1018.8 hPa East 6.9 km/h 9.0 km/h 98 % 0.0 mm
07:39 1.9 °C 1.7 °C 1018.8 hPa ESE 5.8 km/h 9.0 km/h 98 % 0.0 mm
07:44 1.9 °C 1.7 °C 1018.8 hPa ESE 7.9 km/h 9.0 km/h 98 % 0.0 mm
07:49 1.9 °C 1.7 °C 1018.8 hPa ESE 6.1 km/h 9.0 km/h 98 % 0.0 mm
07:54 1.9 °C 1.7 °C 1020.9 hPa East 6.9 km/h 8.7 km/h 98 % 0.0 mm
07:59 1.9 °C 1.7 °C 1020.9 hPa East 6.4 km/h 8.7 km/h 98 % 0.0 mm
08:04 1.9 °C 1.7 °C 1020.9 hPa East 6.1 km/h 8.7 km/h 98 % 0.0 mm
08:09 1.9 °C 1.7 °C 1019.9 hPa East 4.3 km/h 6.4 km/h 98 % 0.0 mm
08:14 1.9 °C 1.7 °C 1019.9 hPa SE 7.9 km/h 9.7 km/h 98 % 0.0 mm
08:19 1.9 °C 1.7 °C 1019.9 hPa ENE 4.0 km/h 9.7 km/h 98 % 0.0 mm
08:24 1.9 °C 1.7 °C 1020.9 hPa ENE 5.8 km/h 6.9 km/h 98 % 0.0 mm
08:30 1.9 °C 1.7 °C 1020.9 hPa NE 5.8 km/h 6.9 km/h 98 % 0.0 mm
08:35 1.9 °C 1.7 °C 1020.9 hPa East 5.8 km/h 6.9 km/h 98 % 0.0 mm
08:40 1.9 °C 1.7 °C 1020.9 hPa ENE 2.6 km/h 6.4 km/h 98 % 0.0 mm
08:45 1.9 °C 1.7 °C 1020.9 hPa ENE 4.0 km/h 8.7 km/h 98 % 0.0 mm
08:50 1.9 °C 1.7 °C 1020.9 hPa Calm   8.7 km/h 98 % 0.0 mm
08:55 2.1 °C 1.8 °C 1021.9 hPa ESE 5.0 km/h 6.9 km/h 98 % 0.0 mm
09:00 2.1 °C 1.8 °C 1021.9 hPa ENE 6.4 km/h 6.9 km/h 98 % 0.0 mm
09:05 2.1 °C 1.8 °C 1021.9 hPa East 8.7 km/h 9.0 km/h 98 % 0.0 mm
09:10 2.1 °C 1.8 °C 1020.9 hPa East 7.9 km/h 9.7 km/h 98 % 0.0 mm
09:15 2.1 °C 1.8 °C 1020.9 hPa NE 7.9 km/h 9.7 km/h 98 % 0.0 mm
09:20 2.3 °C 1.9 °C 1020.9 hPa ENE 7.6 km/h 9.0 km/h 98 % 0.0 mm
09:25 2.3 °C 1.9 °C 1020.9 hPa ENE 6.1 km/h 9.0 km/h 98 % 0.0 mm
09:30 2.3 °C 2.1 °C 1020.9 hPa ENE 8.7 km/h 9.0 km/h 98 % 0.0 mm
09:35 2.3 °C 2.1 °C 1020.9 hPa East 4.7 km/h 9.3 km/h 98 % 0.0 mm
09:40 2.3 °C 2.1 °C 1019.9 hPa East 4.3 km/h 9.3 km/h 98 % 0.0 mm
09:45 2.3 °C 2.1 °C 1019.9 hPa NE 8.7 km/h 10.1 km/h 98 % 0.0 mm
09:50 2.3 °C 2.1 °C 1019.9 hPa East 6.1 km/h 10.1 km/h 98 % 0.0 mm
09:55 2.3 °C 2.1 °C 1019.9 hPa NE 5.0 km/h 10.5 km/h 98 % 0.0 mm
10:00 2.6 °C 2.3 °C 1019.9 hPa East 6.1 km/h 10.5 km/h 98 % 0.0 mm
10:05 2.7 °C 2.4 °C 1019.9 hPa ESE 6.4 km/h 9.7 km/h 98 % 0.0 mm
10:10 2.7 °C 2.4 °C 1020.9 hPa ESE 6.1 km/h 10.1 km/h 98 % 0.0 mm
10:15 2.7 °C 2.4 °C 1020.9 hPa ESE 6.4 km/h 12.2 km/h 98 % 0.0 mm
10:20 2.7 °C 2.4 °C 1020.9 hPa ENE 5.5 km/h 12.6 km/h 98 % 0.0 mm
10:25 2.7 °C 2.4 °C 1020.9 hPa East 9.0 km/h 12.6 km/h 98 % 0.0 mm
10:31 2.7 °C 2.4 °C 1020.9 hPa ESE 11.6 km/h 12.6 km/h 98 % 0.0 mm
10:36 2.7 °C 2.4 °C 1020.9 hPa ESE 9.7 km/h 13.7 km/h 98 % 0.0 mm
10:41 2.9 °C 2.7 °C 1020.9 hPa East 9.0 km/h 13.7 km/h 98 % 0.0 mm
10:46 3.6 °C 3.2 °C 1020.9 hPa East 8.7 km/h 14.0 km/h 98 % 0.0 mm
10:51 3.6 °C 3.3 °C 1020.9 hPa East 9.0 km/h 14.0 km/h 98 % 0.0 mm
10:56 3.6 °C 3.2 °C 1020.9 hPa East 7.6 km/h 14.0 km/h 98 % 0.0 mm
11:01 3.6 °C 3.1 °C 1020.9 hPa ESE 6.4 km/h 12.6 km/h 97 % 0.0 mm
11:06 3.6 °C 2.9 °C 1020.9 hPa ESE 12.2 km/h 14.0 km/h 96 % 0.0 mm
11:11 3.6 °C 2.8 °C 1021.9 hPa ESE 6.4 km/h 14.0 km/h 95 % 0.0 mm
11:16 3.6 °C 2.9 °C 1021.9 hPa East 9.7 km/h 13.0 km/h 95 % 0.0 mm
11:21 3.6 °C 2.8 °C 1021.9 hPa ESE 12.2 km/h 13.0 km/h 95 % 0.0 mm
11:26 3.3 °C 2.4 °C 1020.9 hPa ESE 12.2 km/h 14.0 km/h 94 % 0.0 mm
11:31 3.2 °C 2.3 °C 1020.9 hPa ESE 15.1 km/h 15.1 km/h 94 % 0.0 mm
11:36 3.1 °C 2.3 °C 1020.9 hPa SE 7.9 km/h 15.1 km/h 94 % 0.0 mm
11:41 3.2 °C 2.5 °C 1021.9 hPa East 5.5 km/h 14.0 km/h 95 % 0.0 mm
11:46 3.2 °C 2.5 °C 1021.9 hPa ENE 4.3 km/h 10.5 km/h 95 % 0.0 mm
11:51 3.3 °C 2.6 °C 1021.9 hPa ESE 6.4 km/h 10.5 km/h 95 % 0.0 mm
11:56 3.6 °C 2.9 °C 1021.9 hPa ENE 6.4 km/h 14.0 km/h 96 % 0.0 mm
12:01 3.6 °C 2.8 °C 1021.9 hPa East 9.0 km/h 14.0 km/h 95 % 0.0 mm
12:06 3.4 °C 2.7 °C 1021.9 hPa NE 10.1 km/h 12.2 km/h 95 % 0.0 mm
12:11 3.4 °C 2.7 °C 1021.9 hPa ENE 6.9 km/h 12.2 km/h 95 % 0.0 mm
12:16 3.6 °C 2.8 °C 1021.9 hPa NE 9.3 km/h 11.9 km/h 95 % 0.0 mm
12:21 3.6 °C 2.9 °C 1021.9 hPa ENE 6.9 km/h 13.0 km/h 96 % 0.0 mm
12:26 3.6 °C 2.8 °C 1020.9 hPa ESE 7.9 km/h 13.0 km/h 95 % 0.0 mm
12:31 3.7 °C 3.2 °C 1020.9 hPa ENE 8.7 km/h 13.7 km/h 96 % 0.0 mm
12:36 3.7 °C 3.0 °C 1020.9 hPa ENE 6.9 km/h 13.7 km/h 95 % 0.0 mm
12:41 3.7 °C 3.0 °C 1020.9 hPa ENE 5.5 km/h 14.0 km/h 95 % 0.0 mm
12:46 3.8 °C 3.1 °C 1020.9 hPa East 7.9 km/h 14.0 km/h 95 % 0.0 mm
12:51 3.9 °C 3.1 °C 1020.9 hPa NE 12.6 km/h 13.7 km/h 94 % 0.0 mm
12:56 3.9 °C 3.1 °C 1020.9 hPa ENE 10.1 km/h 18.0 km/h 94 % 0.0 mm
13:01 3.9 °C 2.9 °C 1020.9 hPa ENE 10.1 km/h 18.0 km/h 93 % 0.0 mm
13:06 3.8 °C 2.8 °C 1020.9 hPa ENE 9.3 km/h 15.8 km/h 93 % 0.0 mm
13:11 3.9 °C 2.9 °C 1020.9 hPa ENE 13.0 km/h 14.0 km/h 93 % 0.0 mm
13:16 4.0 °C 3.0 °C 1020.9 hPa NE 9.3 km/h 14.0 km/h 93 % 0.0 mm
13:21 4.0 °C 3.0 °C 1020.9 hPa East 9.0 km/h 15.4 km/h 93 % 0.0 mm
13:26 4.1 °C 3.1 °C 1020.9 hPa ENE 12.6 km/h 15.4 km/h 93 % 0.0 mm
13:31 4.2 °C 3.2 °C 1020.9 hPa East 11.9 km/h 16.9 km/h 93 % 0.0 mm
13:36 4.3 °C 3.3 °C 1020.9 hPa North 12.6 km/h 16.9 km/h 93 % 0.0 mm
13:41 4.3 °C 3.3 °C 1020.9 hPa ENE 14.0 km/h 16.9 km/h 93 % 0.0 mm
13:46 4.4 °C 3.4 °C 1020.9 hPa NE 9.3 km/h 16.9 km/h 93 % 0.0 mm
13:52 4.4 °C 3.4 °C 1020.9 hPa ENE 12.6 km/h 17.7 km/h 93 % 0.0 mm
13:57 4.6 °C 3.7 °C 1021.9 hPa NE 10.5 km/h 17.7 km/h 94 % 0.0 mm
14:02 4.7 °C 3.8 °C 1021.9 hPa NE 12.6 km/h 16.9 km/h 94 % 0.0 mm
14:07 4.7 °C 3.8 °C 1021.9 hPa ENE 12.2 km/h 16.3 km/h 94 % 0.0 mm
14:12 4.7 °C 3.8 °C 1019.9 hPa East 13.0 km/h 16.3 km/h 94 % 0.0 mm
14:17 4.7 °C 3.8 °C 1019.9 hPa ENE 15.8 km/h 17.7 km/h 94 % 0.0 mm
14:22 4.7 °C 3.8 °C 1019.9 hPa East 17.2 km/h 17.7 km/h 94 % 0.0 mm
14:27 4.7 °C 3.8 °C 1019.9 hPa ESE 9.0 km/h 17.7 km/h 94 % 0.0 mm
14:32 4.8 °C 3.9 °C 1019.9 hPa East 13.7 km/h 17.7 km/h 94 % 0.0 mm
14:37 4.9 °C 4.0 °C 1020.9 hPa NE 15.8 km/h 19.5 km/h 94 % 0.0 mm
14:42 4.9 °C 4.0 °C 1020.9 hPa ESE 11.9 km/h 19.5 km/h 94 % 0.0 mm
14:47 5.0 °C 4.1 °C 1020.9 hPa ENE 16.3 km/h 19.5 km/h 94 % 0.0 mm
14:52 5.0 °C 4.1 °C 1020.9 hPa NE 12.2 km/h 19.5 km/h 94 % 0.0 mm
14:57 5.0 °C 4.1 °C 1020.9 hPa ENE 13.7 km/h 23.8 km/h 94 % 0.0 mm
15:02 5.1 °C 4.2 °C 1020.9 hPa East 9.3 km/h 23.8 km/h 94 % 0.0 mm
15:07 5.2 °C 4.4 °C 1020.9 hPa East 11.9 km/h 20.6 km/h 95 % 0.0 mm
15:12 5.4 °C 4.7 °C 1020.9 hPa East 15.8 km/h 16.6 km/h 95 % 0.0 mm
15:17 5.6 °C 4.8 °C 1020.9 hPa ENE 13.0 km/h 16.6 km/h 95 % 0.0 mm
15:22 5.7 °C 4.9 °C 1020.9 hPa East 14.3 km/h 19.5 km/h 95 % 0.0 mm
15:27 5.7 °C 4.9 °C 1020.9 hPa NE 12.2 km/h 19.5 km/h 95 % 0.0 mm
15:32 5.9 °C 5.0 °C 1020.9 hPa NE 12.6 km/h 20.9 km/h 94 % 0.0 mm
15:37 5.9 °C 5.0 °C 1020.9 hPa East 17.2 km/h 20.9 km/h 94 % 0.0 mm
15:42 6.1 °C 5.2 °C 1020.9 hPa East 13.0 km/h 20.1 km/h 94 % 0.0 mm
15:47 6.1 °C 5.2 °C 1020.9 hPa East 16.9 km/h 20.1 km/h 94 % 0.0 mm
15:52 6.0 °C 4.9 °C 1020.9 hPa East 12.6 km/h 20.1 km/h 93 % 0.0 mm
15:57 5.9 °C 4.8 °C 1020.9 hPa East 11.6 km/h 20.1 km/h 93 % 0.0 mm
16:02 5.9 °C 4.8 °C 1020.9 hPa East 9.3 km/h 17.2 km/h 93 % 0.0 mm
16:07 6.0 °C 4.9 °C 1020.9 hPa East 13.0 km/h 15.1 km/h 93 % 0.0 mm
16:12 6.0 °C 5.1 °C 1020.9 hPa NE 17.2 km/h 17.2 km/h 94 % 0.0 mm
16:17 6.1 °C 5.2 °C 1020.9 hPa East 13.0 km/h 20.9 km/h 94 % 0.0 mm
16:22 6.2 °C 5.3 °C 1020.9 hPa NE 14.0 km/h 20.9 km/h 94 % 0.0 mm
16:27 6.2 °C 5.3 °C 1020.9 hPa East 11.9 km/h 17.7 km/h 94 % 0.0 mm
16:33 6.2 °C 5.3 °C 1020.9 hPa NE 16.9 km/h 17.7 km/h 94 % 0.0 mm
16:38 6.3 °C 5.4 °C 1020.9 hPa East 10.5 km/h 16.9 km/h 94 % 0.0 mm
16:43 6.4 °C 5.5 °C 1020.9 hPa East 13.7 km/h 18.0 km/h 94 % 0.0 mm
16:48 6.4 °C 5.5 °C 1020.9 hPa East 12.6 km/h 18.0 km/h 94 % 0.0 mm
16:53 6.4 °C 5.5 °C 1020.9 hPa ENE 9.7 km/h 17.2 km/h 94 % 0.0 mm
16:58 6.4 °C 5.5 °C 1020.9 hPa East 11.6 km/h 15.1 km/h 94 % 0.0 mm
17:03 6.4 °C 5.5 °C 1020.9 hPa ENE 7.9 km/h 15.1 km/h 94 % 0.0 mm
17:08 6.4 °C 5.6 °C 1020.9 hPa ENE 8.7 km/h 13.0 km/h 94 % 0.0 mm
17:13 6.4 °C 5.6 °C 1020.9 hPa East 7.6 km/h 13.0 km/h 94 % 0.0 mm
17:18 6.4 °C 5.5 °C 1020.9 hPa East 12.2 km/h 15.8 km/h 94 % 0.0 mm
17:23 6.4 °C 5.5 °C 1020.9 hPa NE 7.9 km/h 15.8 km/h 94 % 0.0 mm
17:28 6.4 °C 5.5 °C 1020.9 hPa NE 7.9 km/h 12.6 km/h 94 % 0.0 mm
17:33 6.3 °C 5.4 °C 1020.9 hPa East 9.3 km/h 12.6 km/h 94 % 0.0 mm
17:38 6.1 °C 5.2 °C 1020.9 hPa NE 6.9 km/h 12.6 km/h 94 % 0.0 mm
17:43 6.0 °C 5.1 °C 1020.9 hPa NE 5.0 km/h 10.5 km/h 94 % 0.0 mm
17:48 5.9 °C 5.0 °C 1020.9 hPa ENE 5.5 km/h 13.7 km/h 94 % 0.0 mm
17:53 5.9 °C 5.0 °C 1020.9 hPa ENE 10.1 km/h 13.7 km/h 94 % 0.0 mm
17:58 5.9 °C 5.0 °C 1020.9 hPa ENE 9.3 km/h 12.2 km/h 94 % 0.0 mm
18:03 5.8 °C 5.1 °C 1020.9 hPa ENE 5.8 km/h 12.6 km/h 95 % 0.0 mm
18:08 5.8 °C 5.1 °C 1020.9 hPa NE 10.5 km/h 12.6 km/h 95 % 0.0 mm
18:13 5.8 °C 5.1 °C 1020.9 hPa NE 9.7 km/h 10.8 km/h 95 % 0.0 mm
18:18 5.8 °C 5.1 °C 1020.9 hPa East 7.6 km/h 13.7 km/h 95 % 0.0 mm
18:23 5.8 °C 5.2 °C 1020.9 hPa ENE 12.6 km/h 13.7 km/h 96 % 0.0 mm
18:28 5.8 °C 5.2 °C 1020.9 hPa ENE 10.5 km/h 15.4 km/h 96 % 0.0 mm
18:33 5.7 °C 5.1 °C 1020.9 hPa NE 7.9 km/h 17.2 km/h 96 % 0.0 mm
18:38 5.6 °C 4.8 °C 1020.9 hPa East 7.9 km/h 17.2 km/h 95 % 0.0 mm
18:43 5.6 °C 5.0 °C 1020.9 hPa ENE 12.2 km/h 14.8 km/h 96 % 0.0 mm
18:48 5.6 °C 5.0 °C 1020.9 hPa ENE 11.9 km/h 14.0 km/h 96 % 0.0 mm
18:53 5.5 °C 4.9 °C 1021.9 hPa NE 9.7 km/h 14.0 km/h 96 % 0.0 mm
18:58 5.5 °C 4.9 °C 1021.9 hPa East 8.7 km/h 14.0 km/h 96 % 0.0 mm
19:03 5.4 °C 4.8 °C 1021.9 hPa ENE 10.5 km/h 17.2 km/h 96 % 0.0 mm
19:08 5.4 °C 4.8 °C 1020.9 hPa East 11.9 km/h 17.2 km/h 96 % 0.0 mm
19:13 5.3 °C 4.7 °C 1020.9 hPa ENE 9.3 km/h 14.0 km/h 96 % 0.0 mm
19:18 5.3 °C 4.7 °C 1020.9 hPa East 10.8 km/h 17.2 km/h 96 % 0.0 mm
19:19 5.3 °C 4.7 °C 1020.9 hPa East 12.2 km/h 17.2 km/h 96 % 0.0 mm
19:24 5.3 °C 4.7 °C 1020.9 hPa NE 14.0 km/h 17.2 km/h 96 % 0.0 mm
19:29 5.3 °C 4.7 °C 1020.9 hPa ENE 15.4 km/h 17.2 km/h 96 % 0.0 mm
19:34 5.3 °C 4.7 °C 1020.9 hPa ENE 20.1 km/h 20.9 km/h 96 % 0.0 mm
19:39 5.3 °C 4.7 °C 1021.9 hPa East 13.7 km/h 20.9 km/h 96 % 0.0 mm
19:44 5.3 °C 4.7 °C 1021.9 hPa ENE 15.8 km/h 19.8 km/h 96 % 0.0 mm
19:49 5.3 °C 4.6 °C 1021.9 hPa NE 12.6 km/h 19.8 km/h 95 % 0.0 mm
19:54 5.3 °C 4.6 °C 1021.9 hPa ENE 18.3 km/h 20.9 km/h 95 % 0.0 mm
19:59 5.3 °C 4.6 °C 1021.9 hPa ENE 16.6 km/h 20.9 km/h 95 % 0.0 mm
20:04 5.2 °C 4.4 °C 1021.9 hPa ENE 14.0 km/h 19.5 km/h 95 % 0.0 mm
20:09 5.2 °C 4.4 °C 1021.9 hPa ENE 14.0 km/h 21.2 km/h 95 % 0.0 mm
20:14 5.2 °C 4.4 °C 1021.9 hPa NE 12.2 km/h 21.2 km/h 95 % 0.0 mm
20:19 5.2 °C 4.4 °C 1021.9 hPa East 11.9 km/h 16.9 km/h 95 % 0.0 mm
20:24 5.2 °C 4.4 °C 1021.9 hPa East 9.0 km/h 16.9 km/h 95 % 0.0 mm
20:29 5.1 °C 4.3 °C 1021.9 hPa ENE 12.6 km/h 16.9 km/h 95 % 0.0 mm
20:34 5.1 °C 4.3 °C 1021.9 hPa NE 15.1 km/h 17.2 km/h 95 % 0.0 mm
20:39 5.1 °C 4.3 °C 1021.9 hPa East 12.6 km/h 17.2 km/h 95 % 0.0 mm
20:44 5.0 °C 4.3 °C 1021.9 hPa ENE 15.8 km/h 15.8 km/h 95 % 0.0 mm
20:49 5.0 °C 4.3 °C 1021.9 hPa NE 13.7 km/h 16.9 km/h 95 % 0.0 mm
20:54 5.0 °C 4.3 °C 1021.9 hPa ENE 13.7 km/h 16.9 km/h 95 % 0.0 mm
20:59 5.0 °C 4.3 °C 1021.9 hPa ENE 5.0 km/h 16.9 km/h 95 % 0.0 mm
21:04 4.9 °C 4.2 °C 1021.9 hPa NNE 14.3 km/h 14.8 km/h 95 % 0.0 mm
21:09 4.9 °C 4.2 °C 1021.9 hPa ENE 12.2 km/h 14.3 km/h 95 % 0.0 mm
21:14 4.9 °C 4.2 °C 1021.9 hPa East 12.2 km/h 16.9 km/h 95 % 0.0 mm
21:19 4.9 °C 4.2 °C 1021.9 hPa East 10.5 km/h 16.9 km/h 95 % 0.0 mm
21:24 4.9 °C 4.2 °C 1021.9 hPa East 8.7 km/h 14.0 km/h 95 % 0.0 mm
21:29 4.9 °C 4.2 °C 1021.9 hPa NE 16.3 km/h 16.3 km/h 95 % 0.0 mm
21:34 4.9 °C 4.2 °C 1021.9 hPa ENE 11.9 km/h 16.3 km/h 95 % 0.0 mm
21:39 4.8 °C 4.2 °C 1021.9 hPa ENE 14.8 km/h 14.8 km/h 96 % 0.0 mm
21:44 4.8 °C 4.2 °C 1021.9 hPa ENE 9.3 km/h 14.8 km/h 96 % 0.0 mm
21:49 4.8 °C 4.2 °C 1021.9 hPa East 6.1 km/h 14.3 km/h 96 % 0.0 mm
21:54 4.7 °C 3.9 °C 1021.9 hPa ENE 9.7 km/h 13.7 km/h 95 % 0.0 mm
21:59 4.7 °C 3.9 °C 1021.9 hPa East 13.0 km/h 13.7 km/h 95 % 0.0 mm
22:04 4.6 °C 3.9 °C 1021.9 hPa ENE 11.9 km/h 14.0 km/h 95 % 0.0 mm
22:09 4.5 °C 3.8 °C 1021.9 hPa ENE 8.7 km/h 14.0 km/h 95 % 0.0 mm
22:14 4.5 °C 3.9 °C 1021.9 hPa NE 14.0 km/h 14.8 km/h 96 % 0.0 mm
22:19 4.6 °C 4.0 °C 1021.9 hPa ENE 14.0 km/h 15.4 km/h 96 % 0.0 mm
22:24 4.5 °C 3.9 °C 1022.9 hPa ENE 8.7 km/h 15.4 km/h 96 % 0.0 mm
22:29 4.5 °C 3.9 °C 1022.9 hPa ENE 6.9 km/h 14.3 km/h 96 % 0.0 mm
22:35 4.5 °C 3.9 °C 1022.9 hPa ENE 7.9 km/h 12.6 km/h 96 % 0.0 mm
22:40 4.5 °C 3.9 °C 1022.9 hPa ENE 9.0 km/h 13.7 km/h 96 % 0.0 mm
22:45 4.4 °C 3.8 °C 1022.9 hPa NE 6.4 km/h 14.3 km/h 96 % 0.0 mm
22:50 4.3 °C 3.7 °C 1022.9 hPa East 8.7 km/h 14.3 km/h 96 % 0.0 mm
22:55 4.3 °C 3.7 °C 1022.9 hPa ENE 9.3 km/h 13.0 km/h 96 % 0.0 mm
23:00 4.2 °C 3.6 °C 1022.9 hPa East 8.7 km/h 13.0 km/h 96 % 0.0 mm
23:05 4.1 °C 3.6 °C 1022.9 hPa ENE 8.7 km/h 11.9 km/h 96 % 0.0 mm
23:10 4.1 °C 3.6 °C 1022.9 hPa NE 7.6 km/h 13.0 km/h 96 % 0.0 mm
23:15 4.1 °C 3.6 °C 1022.9 hPa East 6.4 km/h 13.0 km/h 96 % 0.0 mm
23:20 4.0 °C 3.4 °C 1022.9 hPa ENE 8.7 km/h 11.6 km/h 96 % 0.0 mm
23:25 4.1 °C 3.6 °C 1022.9 hPa East 7.9 km/h 12.2 km/h 96 % 0.0 mm
23:30 4.1 °C 3.6 °C 1022.9 hPa East 7.9 km/h 13.0 km/h 96 % 0.0 mm
23:35 4.1 °C 3.6 °C 1022.9 hPa ENE 6.9 km/h 13.0 km/h 96 % 0.0 mm
23:40 4.1 °C 3.6 °C 1021.9 hPa NE 7.9 km/h 12.6 km/h 96 % 0.0 mm
23:45 4.1 °C 3.6 °C 1021.9 hPa ENE 9.3 km/h 12.2 km/h 96 % 0.0 mm
23:50 4.1 °C 3.6 °C 1021.9 hPa NE 5.8 km/h 12.2 km/h 96 % 0.0 mm
23:55 4.1 °C 3.6 °C 1021.9 hPa ENE 7.9 km/h 14.0 km/h 96 % 0.0 mm
Le Gheer Warneton
Courtoisie de Weather Underground - 2.25 mb

Mise a jour : 18/12/2017 21:24:12
Généré par Cumulus 1.9.4 (1099)